DELTA 1 DEB, 10875

Orbit data source: Space-Track

DELTA 1 DEB, 10875 is space debris in SSO originally from a launch on Thu, 29 Jul 1976 UTC launched from the Air Force Western Test Range (AFWTR). Debris objects in space refer to the collection of defunct objects orbiting the Earth. Examples of debris include non-operational satellites, rocket bodies, and fragments generated from explosions, collisions, or faulty payload assembly.

Loading next visibility...
Identifier
10875, 1976-077DD
Orbit
SSO
Country
Flag of USUS
Related business
Manufacturer
Unknown
Mission
Spacecraft
Bus & Motor
Unknown
Mass
Unknown
Launch date (UTC)
1976-07-29 (49 years ago)
Launch vehicle
Unknown
Launch site
Air Force Western Test Range (AFWTR)
Object type
Payload
Rocket body
Debris
Shape & HBR
Unknown shape, 0.1 m
Radar Cross Section
Small (<0.1 m²)

Expand to show TLE details & history
Last TLE update: 1 day ago

TLE from 1 day ago
0 DELTA 1 DEB
1 10875U 76077DD  25291.35075770  .00000000  00000-0  30926-3 0  9994
2 10875 101.9446 242.1523 0033271 328.4437 187.1213 12.47048753238977
Epoch: 2025-10-18T08:25Z
TLE epoch observation values (Epoch: 2025-10-18T08:25:05.465Z)
Latitude
23.94217°
Longitude
-85.84012°
Altitude
1,505.385 km
Speed
7.102 km/s
True Right ascension
04h 30m 03s
True Declination
23° 49' 37"
Sunlit
Object was in full shadow at epoch
Visualization orbit readout
Latitude
Unknown
Longitude
Unknown
Altitude
Unknown
Speed
Unknown
Apparent Right ascension
Unknown
Apparent Declination
Unknown
Sunlit
N/A
Visualization observer readout
Local Sidereal Time
12:50:22
Azimuth
Unknown
Elevation
Unknown
Doppler factor
Unknown
Orbital elements
Apogee altitude
1,500.552 km
Perigee altitude
1,448.299 km
Semi-major axis
7,852.563 km
Eccentricity
0.00333
Inclination
101.9446°
RAAN
242.1523°
Arg. of periapsis
328.4437°
True anomaly
187.07423°
Mean anomaly
187.1213°
Eccentric anomaly
187.09775°
Mean motion
3.11908 °/min
Orbital period
115.42 mins
BSTAR
0.00030926
Loading maneuver chart data...
Computing Atmospheric mass density...
Loading historical data...
Loading historical data...
Loading historical data...
Loading historical data...
Loading historical data...
Loading historical data...
Loading historical data...

Documentation

Showing up to 5 results
|